Tracking 35275 objects as of 8-Sep-2026
HD Live streaming from Space Station
objects crossing your sky now

INFORMATOR 1

Track INFORMATOR 1 now!
10-day predictions
INFORMATOR 1 is classified as:


NORAD ID: 21087
Int'l Code: 1991-006A
Launch date: January 29, 1991
Source: Commonwealth of Independent States (former USSR) (CIS)
Launch site: PLESETSK MISSILE AND SPACE COMPLEX (PKMTR)

Uplink (MHz):
Downlink (MHz): 145.800
Beacon (MHz): 145.822
Mode: 1k2 BPSK CW
Call sign:
Status: Inactive


Uplink (MHz):
Downlink (MHz): 145.822
Beacon (MHz): 145.822/145.948
Mode: CW
Call sign:
Status: Inactive

Your satellite tracking list
Your tracking list is empty




NASA's NSSDC Master Catalog

Two Line Element Set (TLE):
1 21087U 91006A   26250.91803300  .00000060  00000-0  46835-4 0  9999
2 21087  82.9398  63.8171 0035259   7.2358 156.5689 13.75528874786915
Source of the keplerian elements: AFSPC